TimeCST,TemperatureF,Dew PointF,Humidity,Sea Level PressureIn,VisibilityMPH,Wind Direction,Wind SpeedMPH,Gust SpeedMPH,PrecipitationIn,Events,Conditions,WindDirDegrees,DateUTC
12:14 AM,17.6,14.0,86,30.04,10.0,South,12.7,18.4,N/A,,Clear,170,2013-01-07 06:14:00
12:34 AM,17.6,15.8,93,30.02,10.0,South,12.7,20.7,N/A,,Clear,170,2013-01-07 06:34:00
12:54 AM,19.4,15.8,86,30.00,10.0,SSE,16.1,-,N/A,,Clear,160,2013-01-07 06:54:00
1:14 AM,19.4,15.8,86,29.99,10.0,SSE,15.0,-,N/A,,Clear,160,2013-01-07 07:14:00
1:33 AM,21.2,17.6,86,29.98,10.0,SSE,18.4,24.2,N/A,,Clear,160,2013-01-07 07:33:00
1:54 AM,19.4,17.6,93,29.96,10.0,South,13.8,23.0,N/A,,Clear,170,2013-01-07 07:54:00
2:34 AM,21.2,17.6,86,29.97,10.0,South,13.8,18.4,N/A,,Clear,170,2013-01-07 08:34:00
2:54 AM,21.2,17.6,86,29.96,10.0,South,11.5,-,N/A,,Clear,180,2013-01-07 08:54:00
3:14 AM,24.8,19.4,80,29.93,10.0,South,15.0,-,N/A,,Clear,170,2013-01-07 09:14:00
3:34 AM,26.6,19.4,74,29.92,10.0,South,17.3,21.9,N/A,,Clear,170,2013-01-07 09:34:00
3:54 AM,26.6,19.4,74,29.92,10.0,South,10.4,-,N/A,,Clear,180,2013-01-07 09:54:00
4:14 AM,28.4,21.2,74,29.91,10.0,South,16.1,21.9,N/A,,Clear,180,2013-01-07 10:14:00
4:34 AM,30.2,23.0,75,29.91,10.0,SSW,12.7,20.7,N/A,,Clear,200,2013-01-07 10:34:00
4:54 AM,30.2,23.0,75,29.92,10.0,SSW,13.8,20.7,N/A,,Clear,200,2013-01-07 10:54:00
5:14 AM,30.2,23.0,75,29.92,10.0,SSW,18.4,28.8,N/A,,Clear,200,2013-01-07 11:14:00
5:34 AM,30.2,23.0,75,29.91,10.0,South,20.7,27.6,N/A,,Clear,190,2013-01-07 11:34:00
5:54 AM,28.4,21.2,74,29.93,10.0,SSW,17.3,32.2,N/A,,Clear,200,2013-01-07 11:54:00
6:14 AM,28.4,21.2,74,29.92,10.0,SSW,15.0,25.3,N/A,,Clear,200,2013-01-07 12:14:00
6:34 AM,26.6,21.2,80,29.92,10.0,South,13.8,23.0,N/A,,Clear,190,2013-01-07 12:34:00
6:54 AM,26.6,21.2,80,29.93,10.0,South,13.8,19.6,N/A,,Clear,190,2013-01-07 12:54:00
7:14 AM,26.6,21.2,80,29.92,10.0,SSW,12.7,19.6,N/A,,Clear,200,2013-01-07 13:14:00
7:34 AM,24.8,19.4,80,29.92,10.0,South,11.5,18.4,N/A,,Clear,190,2013-01-07 13:34:00
7:54 AM,24.8,19.4,80,29.92,10.0,South,10.4,18.4,N/A,,Clear,190,2013-01-07 13:54:00
8:34 AM,26.6,21.2,80,29.92,10.0,South,11.5,16.1,N/A,,Clear,190,2013-01-07 14:34:00
8:54 AM,26.6,21.2,80,29.92,10.0,SSW,10.4,17.3,N/A,,Clear,200,2013-01-07 14:54:00
9:14 AM,26.6,21.2,80,29.93,10.0,South,13.8,17.3,N/A,,Clear,190,2013-01-07 15:14:00
9:34 AM,26.6,21.2,80,29.93,10.0,South,11.5,-,N/A,,Clear,190,2013-01-07 15:34:00
9:54 AM,28.4,21.2,74,29.93,10.0,SSW,12.7,-,N/A,,Clear,200,2013-01-07 15:54:00
10:14 AM,28.4,23.0,80,29.94,10.0,SSW,13.8,-,N/A,,Clear,200,2013-01-07 16:14:00
10:34 AM,30.2,24.8,80,29.95,10.0,SSW,12.7,-,N/A,,Clear,210,2013-01-07 16:34:00
10:54 AM,30.2,24.8,80,29.94,10.0,SSW,12.7,18.4,N/A,,Clear,210,2013-01-07 16:54:00
11:34 AM,32.0,24.8,75,29.93,10.0,SSW,12.7,-,N/A,,Clear,210,2013-01-07 17:34:00
11:54 AM,30.2,24.8,80,29.93,10.0,SW,11.5,-,N/A,,Clear,230,2013-01-07 17:54:00
12:14 PM,32.0,24.8,75,29.92,10.0,SW,12.7,-,N/A,,Clear,220,2013-01-07 18:14:00
12:34 PM,32.0,24.8,75,29.92,10.0,SW,11.5,-,N/A,,Clear,220,2013-01-07 18:34:00
1:14 PM,33.8,26.6,75,29.91,10.0,SSW,10.4,-,N/A,,Clear,210,2013-01-07 19:14:00
1:34 PM,33.8,26.6,75,29.91,10.0,SSW,8.1,-,N/A,,Clear,200,2013-01-07 19:34:00
1:54 PM,33.8,26.6,75,29.91,10.0,SSW,8.1,-,N/A,,Clear,200,2013-01-07 19:54:00
2:14 PM,33.8,26.6,75,29.92,10.0,SSW,6.9,-,N/A,,Clear,210,2013-01-07 20:14:00
2:34 PM,33.8,26.6,75,29.93,10.0,SSW,4.6,-,N/A,,Clear,200,2013-01-07 20:34:00
2:54 PM,33.8,26.6,75,29.93,10.0,South,6.9,-,N/A,,Clear,190,2013-01-07 20:54:00
3:14 PM,33.8,26.6,75,29.93,10.0,South,5.8,-,N/A,,Clear,190,2013-01-07 21:14:00
3:34 PM,33.8,26.6,75,29.94,10.0,South,6.9,-,N/A,,Clear,190,2013-01-07 21:34:00
3:54 PM,32.0,26.6,80,29.93,10.0,South,6.9,-,N/A,,Clear,180,2013-01-07 21:54:00
4:14 PM,30.2,26.6,86,29.94,10.0,South,6.9,-,N/A,,Clear,190,2013-01-07 22:14:00
4:34 PM,30.2,26.6,86,29.95,10.0,SSW,6.9,-,N/A,,Clear,200,2013-01-07 22:34:00
5:14 PM,26.6,24.8,93,29.95,10.0,SSW,4.6,-,N/A,,Clear,200,2013-01-07 23:14:00
5:34 PM,28.4,24.8,86,29.96,10.0,SSW,4.6,-,N/A,,Clear,200,2013-01-07 23:34:00
5:54 PM,28.4,24.8,86,29.96,10.0,South,4.6,-,N/A,,Clear,190,2013-01-07 23:54:00
6:14 PM,26.6,24.8,93,29.96,10.0,SSW,4.6,-,N/A,,Clear,200,2013-01-08 00:14:00
6:34 PM,26.6,24.8,93,29.96,10.0,South,4.6,-,N/A,,Clear,190,2013-01-08 00:34:00
6:54 PM,24.8,24.8,100,29.96,10.0,SSW,4.6,-,N/A,,Clear,200,2013-01-08 00:54:00
7:14 PM,24.8,23.0,93,29.97,10.0,SSW,4.6,-,N/A,,Clear,200,2013-01-08 01:14:00
7:34 PM,23.0,23.0,100,29.97,10.0,South,3.5,-,N/A,,Clear,180,2013-01-08 01:34:00
7:54 PM,21.2,21.2,100,29.96,10.0,South,3.5,-,N/A,,Clear,180,2013-01-08 01:54:00
8:15 PM,23.0,21.2,93,29.96,10.0,South,5.8,-,N/A,,Clear,170,2013-01-08 02:15:00
8:34 PM,23.0,21.2,93,29.96,10.0,South,5.8,-,N/A,,Clear,170,2013-01-08 02:34:00
8:54 PM,23.0,23.0,100,29.96,10.0,South,3.5,-,N/A,,Clear,190,2013-01-08 02:54:00
9:14 PM,21.2,21.2,100,29.96,10.0,South,4.6,-,N/A,,Clear,170,2013-01-08 03:14:00
9:34 PM,21.2,21.2,100,29.96,10.0,South,5.8,-,N/A,,Clear,170,2013-01-08 03:34:00
9:54 PM,21.2,21.2,100,29.96,10.0,South,5.8,-,N/A,,Clear,180,2013-01-08 03:54:00
10:14 PM,21.2,21.2,100,29.96,10.0,South,3.5,-,N/A,,Clear,170,2013-01-08 04:14:00
10:34 PM,19.4,19.4,100,29.97,7.0,SSW,4.6,-,N/A,,Clear,210,2013-01-08 04:34:00
10:54 PM,19.4,19.4,100,29.98,7.0,SSW,3.5,-,N/A,,Clear,210,2013-01-08 04:54:00
11:14 PM,19.4,19.4,100,29.97,7.0,South,4.6,-,N/A,,Clear,170,2013-01-08 05:14:00
11:34 PM,19.4,19.4,100,29.96,7.0,South,5.8,-,N/A,,Clear,170,2013-01-08 05:34:00
11:54 PM,19.4,19.4,100,29.96,10.0,South,5.8,-,N/A,,Clear,180,2013-01-08 05:54:00